Location: Lafig�re
(44.4503°N, 4.0357°E)
Time: 15:43:55
(UTC+00:00)

Vanguard 2 Rocket - Pass Details

Date: 22 June 2021
Orbit: 555 x 3325 km, 32.9° (Epoch: 28 July)

Event Time Altitude Azimuth Distance (km) Brightness Sun altitude
Rises 23:33:32 0° 276° (W) 6,907 11.5 -22.1°
Reaches altitude 10° 23:39:26 10° 268° (W) 5,522 10.9 -22.1°
Maximum altitude 23:51:23 29° 217° (SW) 3,221 9.2 -22.1°
Enters shadow 23:52:56 28° 205° (SSW) 3,116 9.1 -22.1°
